When you browse on this site, cookies collect data to enhance your experience and personalize the content and advertising you see.
Visit our Privacy Policy to learn more. By continuing to use the site, you agree to this use of cookies and data.
  • In Portugal
  • List of Countries
  • For 7 days
  • Water Temperature
  • Weather Map
  • Weather Widgets
  • user-avatar
    Login

    Hourly Weather Edige

    Today, 21 August, Wednesday

    Time Temperature Precipitation Wind Pressure Humidity
    00:00 +25°C° 0 mm 5 mps 762 mmHg 55%
    01:00 +25°C° 0 mm 5 mps 762 mmHg 57%
    02:00 +25°C° 0 mm 5 mps 762 mmHg 58%
    03:00 +23°C° 0 mm 4 mps 762 mmHg 59%
    04:00 +23°C° 0 mm 4 mps 762 mmHg 59%
    05:00 +23°C° 0 mm 4 mps 762 mmHg 58%
    06:00 +24°C° 0 mm 3 mps 762 mmHg 58%
    07:00 +28°C° 0 mm 4 mps 762 mmHg 47%
    08:00 +32°C° 0 mm 4 mps 762 mmHg 37%
    09:00 +35°C° 0 mm 5 mps 762 mmHg 26%
    10:00 +37°C° 0 mm 5 mps 762 mmHg 22%
    11:00 +40°C° 0 mm 6 mps 761 mmHg 19%
    12:00 +42°C° 0 mm 6 mps 761 mmHg 15%
    13:00 +43°C° 0 mm 7 mps 760 mmHg 14%
    14:00 +43°C° 0 mm 7 mps 760 mmHg 14%
    15:00 +43°C° 0 mm 8 mps 760 mmHg 13%
    16:00 +40°C° 0 mm 8 mps 759 mmHg 16%
    17:00 +38°C° 0 mm 8 mps 759 mmHg 19%
    18:00 +35°C° 0 mm 7 mps 759 mmHg 22%
    19:00 +33°C° 0 mm 7 mps 759 mmHg 33%
    20:00 +29°C° 0 mm 6 mps 759 mmHg 45%
    21:00 +26°C° 0 mm 5 mps 759 mmHg 57%
    22:00 +26°C° 0 mm 5 mps 759 mmHg 58%
    23:00 +26°C° 0 mm 5 mps 759 mmHg 59%

    Tomorrow, 22 August, Thursday

    Time Temperature Precipitation Wind Pressure Humidity
    00:00 +25°C° 0 mm 5 mps 759 mmHg 60%
    01:00 +25°C° 0 mm 5 mps 759 mmHg 59%
    02:00 +25°C° 0 mm 5 mps 759 mmHg 58%
    03:00 +25°C° 0 mm 4 mps 759 mmHg 57%
    04:00 +25°C° 0 mm 4 mps 759 mmHg 55%
    05:00 +25°C° 0 mm 4 mps 759 mmHg 53%
    06:00 +25°C° 0 mm 3 mps 759 mmHg 51%
    07:00 +28°C° 0 mm 4 mps 759 mmHg 41%
    08:00 +33°C° 0 mm 5 mps 759 mmHg 31%
    09:00 +38°C° 0 mm 6 mps 759 mmHg 20%
    10:00 +39°C° 0 mm 7 mps 759 mmHg 18%
    11:00 +41°C° 0 mm 8 mps 759 mmHg 16%
    12:00 +43°C° 0 mm 9 mps 758 mmHg 15%
    13:00 +43°C° 0 mm 9 mps 758 mmHg 15%
    14:00 +43°C° 0 mm 9 mps 758 mmHg 15%
    15:00 +43°C° 0 mm 9 mps 758 mmHg 15%
    16:00 +39°C° 0 mm 9 mps 758 mmHg 20%
    17:00 +37°C° 0 mm 8 mps 758 mmHg 24%
    18:00 +34°C° 0 mm 7 mps 758 mmHg 28%
    19:00 +32°C° 0 mm 7 mps 758 mmHg 36%
    20:00 +29°C° 0 mm 6 mps 759 mmHg 44%
    21:00 +27°C° 0 mm 6 mps 759 mmHg 52%
    22:00 +27°C° 0 mm 6 mps 759 mmHg 52%
    23:00 +27°C° 0 mm 5 mps 759 mmHg 52%

    Day after tomorrow, 23 August, Friday

    Time Temperature Precipitation Wind Pressure Humidity
    00:00 +27°C° 0 mm 5 mps 759 mmHg 51%
    01:00 +27°C° 0 mm 5 mps 759 mmHg 53%
    02:00 +26°C° 0 mm 4 mps 759 mmHg 55%
    03:00 +26°C° 0 mm 3 mps 759 mmHg 56%
    04:00 +26°C° 0 mm 3 mps 759 mmHg 56%
    05:00 +26°C° 0 mm 2 mps 759 mmHg 56%
    06:00 +26°C° 0 mm 2 mps 759 mmHg 56%
    07:00 +28°C° 0 mm 2 mps 759 mmHg 49%
    08:00 +31°C° 0 mm 2 mps 759 mmHg 41%
    09:00 +34°C° 0 mm 2 mps 759 mmHg 34%
    10:00 +36°C° 0 mm 3 mps 759 mmHg 30%
    11:00 +38°C° 0 mm 4 mps 759 mmHg 26%
    12:00 +40°C° 0 mm 6 mps 759 mmHg 21%
    13:00 +41°C° 0 mm 6 mps 759 mmHg 19%
    14:00 +43°C° 0 mm 7 mps 758 mmHg 17%
    15:00 +44°C° 0 mm 8 mps 758 mmHg 15%
    16:00 +41°C° 0 mm 7 mps 758 mmHg 19%
    17:00 +39°C° 0 mm 6 mps 759 mmHg 23%
    18:00 +36°C° 0 mm 5 mps 759 mmHg 27%
    19:00 +33°C° 0 mm 5 mps 759 mmHg 35%
    20:00 +30°C° 0 mm 4 mps 759 mmHg 44%
    21:00 +27°C° 0 mm 4 mps 760 mmHg 52%
    22:00 +27°C° 0 mm 4 mps 760 mmHg 55%
    23:00 +27°C° 0 mm 4 mps 760 mmHg 57%

    24 August, Saturday

    Time Temperature Precipitation Wind Pressure Humidity
    00:00 +26°C° 0 mm 4 mps 759 mmHg 60%
    01:00 +26°C° 0 mm 3 mps 759 mmHg 61%
    02:00 +26°C° 0 mm 3 mps 760 mmHg 62%
    03:00 +25°C° 0 mm 3 mps 760 mmHg 63%
    04:00 +25°C° 0 mm 2 mps 760 mmHg 63%
    05:00 +25°C° 0 mm 1 mps 760 mmHg 63%
    06:00 +25°C° 0 mm 1 mps 760 mmHg 63%
    07:00 +28°C° 0 mm 1 mps 760 mmHg 54%
    08:00 +30°C° 0 mm 1 mps 760 mmHg 46%
    09:00 +32°C° 0 mm 1 mps 760 mmHg 37%
    10:00 +35°C° 0 mm 2 mps 760 mmHg 32%
    11:00 +37°C° 0 mm 2 mps 760 mmHg 28%
    12:00 +38°C° 0 mm 2 mps 760 mmHg 23%
    13:00 +39°C° 0 mm 3 mps 760 mmHg 22%
    14:00 +40°C° 0 mm 3 mps 760 mmHg 21%
    15:00 +41°C° 0 mm 4 mps 760 mmHg 20%
    16:00 +40°C° 0 mm 5 mps 760 mmHg 23%
    17:00 +39°C° 0 mm 5 mps 760 mmHg 26%
    18:00 +36°C° 0 mm 6 mps 760 mmHg 29%
    19:00 +34°C° 0.1 mm 5 mps 760 mmHg 38%
    20:00 +32°C° 0.1 mm 5 mps 761 mmHg 46%
    21:00 +28°C° 0.1 mm 5 mps 761 mmHg 54%
    22:00 +28°C° 0 mm 4 mps 761 mmHg 54%
    23:00 +28°C° 0 mm 3 mps 761 mmHg 55%

    25 August, Sunday

    Time Temperature Precipitation Wind Pressure Humidity
    00:00 +28°C° 0 mm 2 mps 761 mmHg 56%
    01:00 +27°C° 0 mm 2 mps 761 mmHg 58%
    02:00 +26°C° 0 mm 2 mps 761 mmHg 60%
    03:00 +26°C° 0 mm 2 mps 761 mmHg 62%
    04:00 +26°C° 0 mm 2 mps 761 mmHg 63%
    05:00 +26°C° 0 mm 2 mps 761 mmHg 63%
    06:00 +26°C° 0 mm 1 mps 761 mmHg 64%
    07:00 +27°C° 0 mm 1 mps 762 mmHg 57%
    08:00 +29°C° 0 mm 1 mps 762 mmHg 51%
    09:00 +31°C° 0 mm 1 mps 762 mmHg 44%
    10:00 +33°C° 0 mm 1 mps 762 mmHg 37%
    11:00 +36°C° 0 mm 2 mps 761 mmHg 29%
    12:00 +38°C° 0 mm 3 mps 761 mmHg 21%
    13:00 +38°C° 0 mm 4 mps 761 mmHg 20%
    14:00 +39°C° 0 mm 5 mps 761 mmHg 18%
    15:00 +39°C° 0 mm 7 mps 761 mmHg 17%
    16:00 +38°C° 0 mm 6 mps 761 mmHg 18%
    17:00 +35°C° 0 mm 6 mps 761 mmHg 20%
    18:00 +34°C° 0 mm 6 mps 760 mmHg 22%
    19:00 +32°C° 0 mm 5 mps 761 mmHg 28%
    20:00 +29°C° 0 mm 4 mps 761 mmHg 34%
    21:00 +27°C° 0 mm 3 mps 761 mmHg 41%
    22:00 +26°C° 0 mm 2 mps 761 mmHg 43%
    23:00 +25°C° 0 mm 1 mps 761 mmHg 46%

    26 August, Monday

    Time Temperature Precipitation Wind Pressure Humidity
    00:00 +22°C° 0 mm 0 mps 761 mmHg 48%
    01:00 +24°C° 0 mm 1 mps 761 mmHg 48%
    02:00 +24°C° 0 mm 1 mps 761 mmHg 48%
    03:00 +24°C° 0 mm 1 mps 761 mmHg 47%
    04:00 +24°C° 0 mm 1 mps 761 mmHg 49%
    05:00 +25°C° 0 mm 1 mps 761 mmHg 50%
    06:00 +25°C° 0 mm 1 mps 761 mmHg 51%
    07:00 +27°C° 0 mm 2 mps 761 mmHg 46%
    08:00 +29°C° 0 mm 2 mps 762 mmHg 40%
    09:00 +31°C° 0 mm 3 mps 762 mmHg 34%
    10:00 +33°C° 0 mm 3 mps 762 mmHg 31%
    11:00 +35°C° 0 mm 4 mps 762 mmHg 28%
    12:00 +36°C° 0 mm 5 mps 762 mmHg 24%
    13:00 +36°C° 0 mm 5 mps 762 mmHg 23%
    14:00 +38°C° 0 mm 6 mps 762 mmHg 21%
    15:00 +38°C° 0 mm 6 mps 762 mmHg 20%
    16:00 +36°C° 0 mm 6 mps 762 mmHg 23%
    17:00 +34°C° 0 mm 5 mps 763 mmHg 26%
    18:00 +33°C° 0 mm 5 mps 763 mmHg 29%
    19:00 +30°C° 0 mm 5 mps 764 mmHg 38%
    20:00 +28°C° 0 mm 4 mps 764 mmHg 47%
    21:00 +26°C° 0 mm 4 mps 765 mmHg 56%
    22:00 +25°C° 0 mm 3 mps 765 mmHg 59%
    23:00 +25°C° 0 mm 3 mps 765 mmHg 62%
    Show more